AAL431 KJAX-KATL

Flight info

Callsign AAL431
Flight time 0h 46m
Altitude 30000
Route BRSTL1 BAXLY LAIRI LARZZ JJEDI3
Aircraft B738/M-VGDW/C

Departure

Time 2026-05-03 21:21
Airport Jacksonville International Airport (KJAX)

Arrival

Time 2026-05-03 22:07
Airport Hartsfield Jackson Atlanta International Airport (KATL)
Time Latitude Longitude Altitude Speed Heading
2026-05-03 20:51 30.49125 -81.68638 23 ft 0 kts 121°
2026-05-03 21:09 30.49126 -81.68638 22 ft 0 kts 121°
2026-05-03 21:09 30.49133 -81.68652 22 ft 2 kts 121°
2026-05-03 21:10 30.49141 -81.68666 22 ft 2 kts 121°
2026-05-03 21:10 30.49148 -81.68681 23 ft 2 kts 121°
2026-05-03 21:10 30.49156 -81.68697 22 ft 1 kts 133°
2026-05-03 21:10 30.49164 -81.68703 23 ft 0 kts 168°
2026-05-03 21:11 30.49172 -81.68703 23 ft 1 kts 172°
2026-05-03 21:11 30.49173 -81.68703 23 ft 0 kts 172°
2026-05-03 21:14 30.49159 -81.68703 22 ft 6 kts 179°
2026-05-03 21:15 30.49086 -81.68731 22 ft 13 kts 207°
2026-05-03 21:15 30.49030 -81.68806 22 ft 13 kts 269°
2026-05-03 21:15 30.49063 -81.68916 22 ft 16 kts 296°
2026-05-03 21:15 30.49126 -81.69023 22 ft 16 kts 333°
2026-05-03 21:16 30.49249 -81.69014 24 ft 17 kts 12°
2026-05-03 21:16 30.49356 -81.68993 26 ft 13 kts
2026-05-03 21:16 30.49441 -81.69013 26 ft 11 kts 333°
2026-05-03 21:16 30.49506 -81.69060 26 ft 10 kts 327°
2026-05-03 21:17 30.49563 -81.69099 26 ft 8 kts 330°
2026-05-03 21:17 30.49598 -81.69121 26 ft 8 kts 330°
2026-05-03 21:17 30.49674 -81.69195 26 ft 18 kts 287°
2026-05-03 21:17 30.49635 -81.69374 26 ft 24 kts 249°
2026-05-03 21:18 30.49580 -81.69553 26 ft 21 kts 252°
2026-05-03 21:18 30.49533 -81.69701 26 ft 17 kts 250°
2026-05-03 21:18 30.49493 -81.69830 26 ft 16 kts 250°
2026-05-03 21:18 30.49511 -81.69936 23 ft 10 kts 329°
2026-05-03 21:19 30.49515 -81.69939 23 ft 0 kts 332°
2026-05-03 21:19 30.49535 -81.69949 23 ft 9 kts 336°
2026-05-03 21:19 30.49633 -81.69939 23 ft 20 kts 52°
2026-05-03 21:20 30.49706 -81.69750 26 ft 32 kts 69°
2026-05-03 21:20 30.49854 -81.69247 26 ft 103 kts 71°
2026-05-03 21:20 30.50173 -81.68217 46 ft 161 kts 70°
2026-05-03 21:20 30.50616 -81.66911 462 ft 185 kts 68°
2026-05-03 21:21 30.51077 -81.65374 830 ft 216 kts 71°
2026-05-03 21:21 30.51591 -81.63662 1429 ft 236 kts 69°
2026-05-03 21:21 30.52170 -81.61897 2240 ft 238 kts 68°
2026-05-03 21:21 30.52753 -81.60136 3079 ft 236 kts 68°
2026-05-03 21:22 30.53342 -81.58334 3791 ft 241 kts 66°
2026-05-03 21:22 30.54274 -81.56744 4389 ft 248 kts 37°
2026-05-03 21:22 30.55892 -81.55942 4825 ft 263 kts
2026-05-03 21:22 30.57687 -81.56273 5553 ft 267 kts 335°
2026-05-03 21:23 30.59173 -81.57482 6452 ft 264 kts 313°
2026-05-03 21:23 30.60365 -81.59093 7209 ft 266 kts 310°
2026-05-03 21:23 30.61612 -81.60646 7984 ft 267 kts 314°
2026-05-03 21:23 30.62973 -81.62134 8781 ft 267 kts 315°
2026-05-03 21:24 30.64331 -81.63573 9518 ft 268 kts 314°
2026-05-03 21:24 30.65703 -81.65059 10102 ft 274 kts 313°
2026-05-03 21:24 30.67096 -81.66598 10500 ft 287 kts 313°
2026-05-03 21:24 30.68572 -81.68262 10769 ft 304 kts 312°
2026-05-03 21:25 30.70129 -81.70043 11023 ft 320 kts 311°
2026-05-03 21:25 30.71740 -81.71910 11496 ft 328 kts 311°
2026-05-03 21:25 30.73331 -81.73750 12446 ft 319 kts 310°
2026-05-03 21:25 30.74872 -81.75523 13403 ft 311 kts 310°
2026-05-03 21:26 30.76373 -81.77215 14419 ft 299 kts 311°
2026-05-03 21:26 30.77858 -81.78890 15127 ft 296 kts 310°
2026-05-03 21:26 30.79320 -81.80555 15705 ft 298 kts 310°
2026-05-03 21:26 30.80805 -81.82223 16353 ft 298 kts 310°
2026-05-03 21:27 30.82289 -81.83894 16903 ft 300 kts 310°
2026-05-03 21:27 30.83787 -81.85586 17465 ft 301 kts 310°
2026-05-03 21:27 30.85295 -81.87277 17857 ft 308 kts 310°
2026-05-03 21:27 30.86944 -81.88995 18070 ft 323 kts 315°
2026-05-03 21:28 30.88830 -81.90549 18195 ft 342 kts 322°
2026-05-03 21:28 30.90913 -81.91982 18399 ft 355 kts 324°
2026-05-03 21:28 30.93109 -81.93426 18543 ft 367 kts 324°
2026-05-03 21:28 30.95357 -81.94931 18816 ft 375 kts 324°
2026-05-03 21:29 30.97612 -81.96462 19073 ft 383 kts 324°
2026-05-03 21:29 31.00024 -81.97916 19465 ft 390 kts 328°
2026-05-03 21:29 31.02491 -81.99162 20001 ft 391 kts 332°
2026-05-03 21:29 31.05053 -82.00339 20288 ft 398 kts 332°
2026-05-03 21:30 31.07656 -82.01513 20616 ft 403 kts 332°
2026-05-03 21:30 31.10285 -82.02710 21096 ft 403 kts 332°
2026-05-03 21:30 31.12903 -82.03923 21416 ft 407 kts 331°
2026-05-03 21:30 31.15515 -82.05143 21925 ft 405 kts 331°
2026-05-03 21:31 31.18136 -82.06375 22347 ft 406 kts 330°
2026-05-03 21:31 31.20788 -82.07637 22708 ft 408 kts 330°
2026-05-03 21:31 31.23410 -82.08897 23183 ft 408 kts 330°
2026-05-03 21:31 31.26034 -82.10167 23467 ft 412 kts 329°
2026-05-03 21:32 31.28696 -82.11474 23918 ft 411 kts 329°
2026-05-03 21:32 31.31325 -82.12780 24227 ft 414 kts 329°
2026-05-03 21:32 31.33975 -82.14100 24463 ft 419 kts 329°
2026-05-03 21:32 31.36669 -82.15427 24749 ft 422 kts 329°
2026-05-03 21:33 31.39393 -82.16742 25042 ft 425 kts 330°
2026-05-03 21:33 31.42184 -82.18063 25304 ft 429 kts 330°
2026-05-03 21:33 31.44955 -82.19358 25680 ft 429 kts 330°
2026-05-03 21:33 31.47731 -82.20658 25988 ft 431 kts 330°
2026-05-03 21:34 31.50475 -82.21960 26402 ft 429 kts 330°
2026-05-03 21:34 31.53262 -82.23291 26659 ft 431 kts 329°
2026-05-03 21:34 31.56026 -82.24620 26931 ft 433 kts 329°
2026-05-03 21:34 31.58831 -82.25970 27261 ft 433 kts 329°
2026-05-03 21:35 31.61605 -82.27295 27655 ft 432 kts 329°
2026-05-03 21:35 31.64384 -82.28620 27906 ft 434 kts 329°
2026-05-03 21:35 31.67182 -82.29967 28233 ft 434 kts 329°
2026-05-03 21:35 31.69989 -82.31332 28536 ft 434 kts 328°
2026-05-03 21:36 31.72700 -82.32797 28895 ft 427 kts 323°
2026-05-03 21:36 31.75213 -82.34550 29061 ft 418 kts 317°
2026-05-03 21:36 31.79765 -82.38712 29071 ft 410 kts 311°
2026-05-03 21:37 31.84100 -82.43050 29075 ft 411 kts 311°
2026-05-03 21:37 31.88512 -82.47397 29082 ft 411 kts 311°
2026-05-03 21:38 31.92919 -82.51703 29083 ft 409 kts 312°
2026-05-03 21:38 31.97310 -82.56042 29085 ft 411 kts 312°
2026-05-03 21:39 32.01658 -82.60420 29087 ft 412 kts 311°
2026-05-03 21:39 32.06012 -82.64868 29094 ft 413 kts 311°
2026-05-03 21:40 32.10335 -82.69305 29085 ft 416 kts 311°
2026-05-03 21:40 32.14476 -82.73538 29080 ft 418 kts 311°
2026-05-03 21:41 32.18511 -82.77661 29080 ft 419 kts 311°
2026-05-03 21:41 32.22898 -82.82250 29083 ft 420 kts 310°
2026-05-03 21:42 32.27267 -82.86838 29085 ft 422 kts 310°
2026-05-03 21:42 32.31694 -82.91419 29084 ft 425 kts 311°
2026-05-03 21:43 32.33947 -82.93705 28885 ft 430 kts 312°
2026-05-03 21:43 32.36244 -82.96024 28633 ft 437 kts 312°
2026-05-03 21:43 32.38583 -82.98392 28385 ft 443 kts 312°
2026-05-03 21:43 32.40890 -83.00736 28146 ft 438 kts 313°
2026-05-03 21:44 32.43175 -83.03053 27883 ft 426 kts 313°
2026-05-03 21:44 32.45409 -83.05325 27611 ft 414 kts 313°
2026-05-03 21:44 32.47553 -83.07508 27357 ft 408 kts 312°
2026-05-03 21:44 32.49717 -83.09721 27120 ft 412 kts 313°
2026-05-03 21:45 32.51890 -83.11961 26878 ft 414 kts 313°
2026-05-03 21:45 32.54063 -83.14214 26620 ft 414 kts 313°
2026-05-03 21:45 32.56231 -83.16467 26365 ft 412 kts 313°
2026-05-03 21:45 32.58364 -83.18688 26120 ft 410 kts 313°
2026-05-03 21:46 32.60514 -83.20925 25862 ft 407 kts 313°
2026-05-03 21:46 32.62650 -83.23140 25603 ft 406 kts 313°
2026-05-03 21:46 32.64751 -83.25314 25274 ft 407 kts 314°
2026-05-03 21:46 32.66908 -83.27539 24707 ft 405 kts 314°
2026-05-03 21:47 32.69019 -83.29724 24078 ft 402 kts 314°
2026-05-03 21:47 32.71093 -83.31885 23456 ft 399 kts 314°
2026-05-03 21:47 32.73162 -83.34062 22819 ft 396 kts 314°
2026-05-03 21:47 32.75195 -83.36218 22188 ft 393 kts 314°
2026-05-03 21:48 32.77219 -83.38362 21570 ft 390 kts 314°
2026-05-03 21:48 32.79245 -83.40505 20950 ft 387 kts 315°
2026-05-03 21:48 32.81265 -83.42632 20312 ft 385 kts 315°
2026-05-03 21:48 32.83243 -83.44696 19695 ft 382 kts 315°
2026-05-03 21:49 32.85243 -83.46766 19064 ft 380 kts 316°
2026-05-03 21:49 32.87231 -83.48822 18438 ft 377 kts 316°
2026-05-03 21:49 32.89212 -83.50881 17929 ft 372 kts 316°
2026-05-03 21:49 32.91107 -83.52855 17715 ft 359 kts 316°
2026-05-03 21:50 32.92974 -83.54805 17227 ft 356 kts 316°
2026-05-03 21:50 32.94818 -83.56753 16669 ft 354 kts 316°
2026-05-03 21:50 32.96640 -83.58688 16296 ft 347 kts 316°
2026-05-03 21:50 32.98430 -83.60589 15744 ft 346 kts 316°
2026-05-03 21:51 33.00234 -83.62488 15207 ft 344 kts 316°
2026-05-03 21:51 33.02022 -83.64349 14684 ft 342 kts 317°
2026-05-03 21:51 33.03815 -83.66211 14138 ft 341 kts 317°
2026-05-03 21:51 33.05585 -83.68063 13602 ft 340 kts 317°
2026-05-03 21:52 33.07343 -83.69916 13071 ft 338 kts 317°
2026-05-03 21:52 33.09095 -83.71767 12540 ft 336 kts 317°
2026-05-03 21:52 33.10843 -83.73612 12093 ft 332 kts 317°
2026-05-03 21:52 33.12563 -83.75423 11876 ft 320 kts 317°
2026-05-03 21:53 33.14193 -83.77132 11656 ft 309 kts 317°
2026-05-03 21:53 33.15774 -83.78794 11252 ft 299 kts 317°
2026-05-03 21:53 33.17327 -83.80434 10850 ft 289 kts 317°
2026-05-03 21:53 33.18792 -83.81998 10510 ft 280 kts 316°
2026-05-03 21:54 33.20164 -83.83578 10105 ft 274 kts 314°
2026-05-03 21:54 33.21486 -83.85204 9584 ft 272 kts 313°
2026-05-03 21:54 33.22804 -83.86823 9011 ft 272 kts 314°
2026-05-03 21:54 33.24148 -83.88430 8435 ft 272 kts 315°
2026-05-03 21:55 33.25487 -83.90011 7899 ft 271 kts 315°
2026-05-03 21:55 33.26791 -83.91553 7673 ft 262 kts 315°
2026-05-03 21:55 33.28104 -83.93111 7206 ft 265 kts 315°
2026-05-03 21:55 33.29410 -83.94664 6772 ft 266 kts 315°
2026-05-03 21:56 33.30712 -83.96212 6357 ft 266 kts 315°
2026-05-03 21:56 33.32029 -83.97775 5940 ft 266 kts 315°
2026-05-03 21:56 33.33333 -83.99326 5611 ft 263 kts 315°
2026-05-03 21:56 33.34628 -84.00866 5252 ft 262 kts 315°
2026-05-03 21:57 33.35999 -84.02304 4930 ft 257 kts 326°
2026-05-03 21:57 33.37631 -84.03107 4427 ft 257 kts 352°
2026-05-03 21:57 33.39392 -84.03133 4092 ft 251 kts
2026-05-03 21:57 33.41133 -84.03145 3626 ft 249 kts 347°
2026-05-03 21:58 33.42715 -84.03906 3201 ft 244 kts 328°
2026-05-03 21:58 33.44096 -84.05033 2977 ft 233 kts 323°
2026-05-03 21:58 33.45387 -84.06153 2976 ft 230 kts 324°
2026-05-03 21:58 33.46700 -84.07274 2972 ft 230 kts 324°
2026-05-03 21:59 33.47986 -84.08361 2961 ft 224 kts 324°
2026-05-03 21:59 33.49230 -84.09408 2967 ft 212 kts 324°
2026-05-03 21:59 33.50440 -84.10421 2974 ft 214 kts 324°
2026-05-03 21:59 33.51668 -84.11451 2976 ft 215 kts 324°
2026-05-03 22:00 33.52896 -84.12481 2982 ft 214 kts 324°
2026-05-03 22:00 33.54106 -84.13496 2968 ft 207 kts 324°
2026-05-03 22:00 33.55233 -84.14437 2969 ft 192 kts 324°
2026-05-03 22:00 33.56299 -84.15324 2975 ft 183 kts 324°
2026-05-03 22:01 33.57367 -84.16212 2967 ft 185 kts 324°
2026-05-03 22:01 33.58420 -84.17086 2974 ft 187 kts 324°
2026-05-03 22:01 33.59491 -84.17976 2983 ft 186 kts 324°
2026-05-03 22:01 33.60552 -84.18861 2995 ft 185 kts 324°
2026-05-03 22:02 33.61619 -84.19750 3001 ft 186 kts 324°
2026-05-03 22:02 33.62675 -84.20655 2983 ft 186 kts 316°
2026-05-03 22:02 33.63348 -84.21931 2971 ft 174 kts 277°
2026-05-03 22:02 33.63256 -84.23262 3008 ft 156 kts 259°
2026-05-03 22:03 33.63168 -84.24557 3004 ft 156 kts 273°
2026-05-03 22:03 33.63164 -84.25860 2982 ft 153 kts 272°
2026-05-03 22:03 33.63166 -84.27131 3009 ft 151 kts 272°
2026-05-03 22:03 33.63168 -84.28388 2981 ft 152 kts 272°
2026-05-03 22:04 33.63169 -84.29668 2942 ft 153 kts 272°
2026-05-03 22:04 33.63171 -84.30941 2720 ft 149 kts 271°
2026-05-03 22:04 33.63173 -84.32172 2550 ft 147 kts 271°
2026-05-03 22:04 33.63173 -84.33395 2357 ft 147 kts 271°
2026-05-03 22:05 33.63177 -84.34608 2167 ft 145 kts 270°
2026-05-03 22:05 33.63177 -84.35826 1978 ft 145 kts 270°
2026-05-03 22:05 33.63179 -84.37013 1789 ft 143 kts 269°
2026-05-03 22:05 33.63178 -84.38216 1602 ft 143 kts 269°
2026-05-03 22:06 33.63180 -84.39419 1412 ft 144 kts 269°
2026-05-03 22:06 33.63179 -84.40614 1225 ft 144 kts 269°
2026-05-03 22:06 33.63179 -84.41814 1038 ft 144 kts 269°
2026-05-03 22:06 33.63179 -84.42891 1001 ft 104 kts 272°
2026-05-03 22:07 33.63198 -84.43512 1008 ft 50 kts 284°
2026-05-03 22:07 33.63272 -84.43728 1011 ft 0 kts 301°
2026-05-03 22:09 33.63283 -84.43741 1012 ft 6 kts 328°
2026-05-03 22:09 33.63342 -84.43720 1011 ft 9 kts 50°
2026-05-03 22:09 33.63360 -84.43649 1011 ft 8 kts 73°
2026-05-03 22:10 33.63537 -84.43608 1012 ft 14 kts 10°
2026-05-03 22:10 33.63584 -84.43521 1011 ft 13 kts 88°
2026-05-03 22:10 33.63619 -84.43432 1010 ft 11 kts 28°
2026-05-03 22:10 33.63689 -84.43399 1010 ft 9 kts 20°
2026-05-03 22:11 33.63752 -84.43391 1010 ft 8 kts
2026-05-03 22:11 33.63804 -84.43385 1010 ft 6 kts 24°
2026-05-03 22:11 33.63827 -84.43349 1010 ft 4 kts 79°
2026-05-03 22:11 33.63828 -84.43317 1010 ft 0 kts 89°